Weather History for McCall, ID

Change the Weather History Date:

Thursday, August 21, 2014

  Actual Average Record
Temperature  
Mean Temperature 60 °F 59 °F  
Max Temperature 73 °F 77 °F 94 °F (1967)
Min Temperature 46 °F 41 °F 30 °F (1966)
Degree Days  
Heating Degree Days 5 6  
Month to date heating degree days 22 100  
Since 1 June heating degree days 354 617  
Since 1 July heating degree days 40 250  
Cooling Degree Days 0 0  
Month to date cooling degree days 54 7  
Year to date cooling degree days 185 23  
Since 1 June cooling degree days 185 23  
Growing Degree Days 9 (Base 50)    
Moisture  
Dew Point 41 °F    
Average Humidity 53    
Maximum Humidity 86    
Minimum Humidity 20    
Precipitation  
Precipitation 0.00 in 0.02 in 0.35 in (1965)
Month to date precipitation 1.08 0.44  
Year to date precipitation 16.50 12.80  
Sea Level Pressure  
Sea Level Pressure 29.91 in    
Wind  
Wind Speed 5 mph (South)    
Max Wind Speed 18 mph    
Max Gust Speed 22 mph    
Visibility 10 miles    
Events      
T = Trace of Precipitation, MM = Missing Value Source: NWS Daily Summary

Daily Weather History Graph

Daily Weather History Graph

Search for Another Location

Airport:

Trip Planner

Search our weather history database for the weather conditions in past years. The results will help you decide how hot, cold, wet, or windy it might be!

Date:

Astronomy

Aug. 21, 2014 Rise Set
Actual Time 6:53 AM MDT 8:40 PM MDT
Civil Twilight 6:22 AM MDT 9:11 PM MDT
Nautical Twilight 5:44 AM MDT 9:49 PM MDT
Astronomical Twilight 5:02 AM MDT 10:30 PM MDT
Moon 3:23 AM MDT (8/21) 6:15 PM MDT (8/21)
Length of Visible Light 14h 49m
Length of Day
13h 46m
Waning Crescent, 13% of the Moon is Illuminated
Aug 21
Waning Crescent
Aug 25
New
Sep 2
First Quarter
Sep 8
Full
Sep 15
Last Quarter

Hourly Weather History & Observations

Time (MDT) Temp. Dew Point Humidity Pressure Visibility Wind Dir Wind Speed Gust Speed Precip Events Conditions
12:51 AM 55.9 °F 46.9 °F 72% 29.86 in 10.0 mi North 5.8 mph - N/A   Clear
1:51 AM 54.0 °F 46.0 °F 75% 29.87 in 10.0 mi NW 3.5 mph - N/A   Clear
2:51 AM 55.9 °F 45.0 °F 67% 29.86 in 10.0 mi NNE 9.2 mph - N/A   Clear
3:51 AM 50.0 °F 46.0 °F 86% 29.89 in 10.0 mi NNW 4.6 mph - N/A   Clear
4:51 AM 48.0 °F 44.1 °F 86% 29.90 in 10.0 mi Calm Calm - N/A   Clear
5:51 AM 48.0 °F 44.1 °F 86% 29.91 in 10.0 mi Calm Calm - N/A   Mostly Cloudy
6:51 AM 46.9 °F 43.0 °F 86% 29.94 in 10.0 mi Calm Calm - N/A   Partly Cloudy
7:51 AM 48.0 °F 44.1 °F 86% 29.96 in 10.0 mi Calm Calm - N/A   Overcast
9:51 AM 55.9 °F 48.0 °F 75% 29.96 in 10.0 mi Calm Calm - N/A   Partly Cloudy
10:51 AM 61.0 °F 48.0 °F 62% 29.96 in 10.0 mi Variable 3.5 mph - N/A   Clear
11:51 AM 64.9 °F 48.0 °F 54% 29.94 in 10.0 mi South 9.2 mph - N/A   Clear
12:51 PM 68.0 °F 43.0 °F 40% 29.94 in 10.0 mi South 10.4 mph 20.7 mph N/A   Partly Cloudy
1:51 PM 68.0 °F 41.0 °F 37% 29.94 in 10.0 mi South 6.9 mph - N/A   Clear
3:51 PM 72.0 °F 39.0 °F 30% 29.92 in 10.0 mi South 12.7 mph 20.7 mph N/A   Clear
5:51 PM 70.0 °F 33.1 °F 26% 29.90 in 10.0 mi South 9.2 mph - N/A   Clear
6:51 PM 70.0 °F 26.1 °F 19% 29.89 in 10.0 mi South 5.8 mph - N/A   Clear
7:51 PM 68.0 °F 28.9 °F 23% 29.89 in 10.0 mi SSE 4.6 mph - N/A   Clear
8:51 PM 63.0 °F 33.1 °F 33% 29.90 in 10.0 mi Calm Calm - N/A   Clear
9:51 PM 57.9 °F 32.0 °F 37% 29.91 in 10.0 mi NNE 4.6 mph - N/A   Clear
11:51 PM 52.0 °F 37.9 °F 59% 29.90 in 10.0 mi Calm Calm - N/A   Clear